STARLINK-2031, 47648

Orbit data source: Space-Track

STARLINK-2031, 47648 is a payload satellite owned by SpaceX/Seattle (US) in LEO that was launched on Tue, 16 Feb 2021 UTC via an FALCON 9 launch vehicle from the Air Force Eastern Test Range (AFETR). Payload-class satellites include a variety of spacecraft equipped with specific instruments for various scientific and technological missions. These include communications satellites like Starlink; space stations such as the ISS; scientific satellites like the Hubble; Earth observation satellites from companies like Planet Labs, Umbra, and HawkEye 360; GPS; miniature CubeSats for education and research; and military/defense satellites.

Loading next visibility...
Identifier
47648, 2021-012AE
Orbit
LEO
Country
Flag of USUS
Related business
Manufacturer
SpaceX/Seattle
Mission
Operational Commercial Communications
Bus & Motor
STARLINK, Unknown motor
Mass
260 kg wet, ~248 kg dry
Launch date (UTC)
2021-02-16 (5 years ago)
Launch vehicle
FALCON 9
Launch site
Air Force Eastern Test Range (AFETR)
Object type
Payload
Rocket body
Debris
Shape & HBR
Box + 1 Pan, 10.1 m
Radar Cross Section
13.562 m², Large (>1 m²)

Expand to show TLE details & history
Last TLE update: 7 hours ago

TLE from 7 hours ago
0 STARLINK-2031
1 47648U 21012AE  25343.60169103  .00001311  00000-0  10686-3 0  9998
2 47648  53.0570  96.0377 0001363  88.9860 271.1286 15.06409404266694
Epoch: 2025-12-09T14:26Z
TLE epoch observation values (Epoch: 2025-12-09T14:26:26.104Z)
Latitude
0.00002°
Longitude
160.84492°
Altitude
548.044 km
Speed
7.589 km/s
True Right ascension
06h 24m 09s
True Declination
0° 00' 00"
Sunlit
Object was in full shadow at epoch
Visualization orbit readout
Latitude
Unknown
Longitude
Unknown
Altitude
Unknown
Speed
Unknown
Apparent Right ascension
Unknown
Apparent Declination
Unknown
Sunlit
N/A
Visualization observer readout
Local Sidereal Time
19:55:28
Azimuth
Unknown
Elevation
Unknown
Doppler factor
Unknown
Orbital elements
Apogee altitude
548.397 km
Perigee altitude
546.509 km
Semi-major axis
6,925.59 km
Eccentricity
0.00014
Inclination
53.057°
RAAN
96.0377°
Arg. of periapsis
88.986°
True anomaly
271.11298°
Mean anomaly
271.1286°
Eccentric anomaly
271.12079°
Mean motion
3.76581 °/min
Orbital period
95.6 mins
BSTAR
0.00010686
Loading maneuver chart data...
Computing Atmospheric mass density...
Loading historical data...
Loading historical data...
Loading historical data...
Loading historical data...
Loading historical data...
Loading historical data...
Loading historical data...

Documentation

Showing up to 5 results
|